TimeEDT,TemperatureF,Dew PointF,Humidity,Sea Level PressureIn,VisibilityMPH,Wind Direction,Wind SpeedMPH,Gust SpeedMPH,PrecipitationIn,Events,Conditions,WindDirDegrees,DateUTC
12:53 AM,66.9,64.9,93,30.17,5.0,Calm,Calm,-,N/A,,Clear,0,2013-07-17 04:53:00
1:36 AM,66.2,64.4,94,30.19,1.8,Calm,Calm,-,N/A,,Clear,0,2013-07-17 05:36:00
1:49 AM,66.2,64.4,94,30.20,3.0,Calm,Calm,-,N/A,,Clear,0,2013-07-17 05:49:00
1:53 AM,66.9,64.9,93,30.16,4.0,Calm,Calm,-,N/A,,Clear,0,2013-07-17 05:53:00
2:53 AM,66.0,64.0,93,30.15,4.0,Calm,Calm,-,N/A,,Partly Cloudy,0,2013-07-17 06:53:00
3:29 AM,64.4,64.4,100,30.18,2.0,Calm,Calm,-,N/A,,Clear,0,2013-07-17 07:29:00
3:38 AM,64.4,62.6,94,30.18,3.0,Calm,Calm,-,N/A,,Clear,0,2013-07-17 07:38:00
3:53 AM,64.0,62.1,93,30.16,4.0,Calm,Calm,-,N/A,,Clear,0,2013-07-17 07:53:00
4:17 AM,64.4,62.6,94,30.19,2.5,Calm,Calm,-,N/A,,Partly Cloudy,0,2013-07-17 08:17:00
4:24 AM,64.4,62.6,94,30.19,1.8,Calm,Calm,-,N/A,,Mostly Cloudy,0,2013-07-17 08:24:00
4:28 AM,64.4,62.6,94,30.19,3.0,Calm,Calm,-,N/A,,Mostly Cloudy,0,2013-07-17 08:28:00
4:31 AM,64.4,62.6,94,30.19,2.5,Calm,Calm,-,N/A,,Scattered Clouds,0,2013-07-17 08:31:00
4:38 AM,64.4,62.6,94,30.20,4.0,Calm,Calm,-,N/A,,Scattered Clouds,0,2013-07-17 08:38:00
4:45 AM,64.4,62.6,94,30.19,4.0,Calm,Calm,-,N/A,,Mostly Cloudy,0,2013-07-17 08:45:00
4:53 AM,64.9,64.0,97,30.16,4.0,Calm,Calm,-,N/A,,Mostly Cloudy,0,2013-07-17 08:53:00
5:13 AM,64.4,64.4,100,30.20,1.5,Calm,Calm,-,N/A,,Overcast,0,2013-07-17 09:13:00
5:21 AM,64.4,64.4,100,30.20,0.5,Calm,Calm,-,N/A,Fog,Fog,0,2013-07-17 09:21:00
5:50 AM,64.4,64.4,100,30.21,2.0,Calm,Calm,-,N/A,,Overcast,0,2013-07-17 09:50:00
5:53 AM,64.9,63.0,93,30.17,3.0,Calm,Calm,-,N/A,,Mostly Cloudy,0,2013-07-17 09:53:00
6:01 AM,64.4,62.6,94,30.21,1.2,Calm,Calm,-,N/A,,Scattered Clouds,0,2013-07-17 10:01:00
6:20 AM,66.2,64.4,94,30.21,3.0,Calm,Calm,-,N/A,,Mostly Cloudy,0,2013-07-17 10:20:00
6:53 AM,66.9,64.9,93,30.17,3.0,Calm,Calm,-,N/A,,Mostly Cloudy,0,2013-07-17 10:53:00
7:00 AM,68.0,64.4,88,30.21,5.0,Calm,Calm,-,N/A,,Partly Cloudy,0,2013-07-17 11:00:00
7:53 AM,71.1,66.0,84,30.17,9.0,Calm,Calm,-,N/A,,Clear,0,2013-07-17 11:53:00
8:53 AM,75.0,66.9,76,30.16,9.0,Calm,Calm,-,N/A,,Clear,0,2013-07-17 12:53:00
9:53 AM,81.0,68.0,65,30.15,10.0,Calm,Calm,-,N/A,,Clear,0,2013-07-17 13:53:00
10:53 AM,84.9,70.0,61,30.12,10.0,South,5.8,-,N/A,,Clear,190,2013-07-17 14:53:00
11:53 AM,89.1,69.1,52,30.11,10.0,SSW,4.6,-,N/A,,Clear,210,2013-07-17 15:53:00
12:53 PM,90.0,70.0,52,30.09,10.0,SSE,4.6,-,N/A,,Partly Cloudy,160,2013-07-17 16:53:00
1:53 PM,93.0,64.0,38,30.06,10.0,West,8.1,-,N/A,,Partly Cloudy,280,2013-07-17 17:53:00
2:53 PM,93.9,64.9,38,30.03,10.0,West,5.8,-,N/A,,Partly Cloudy,270,2013-07-17 18:53:00
3:53 PM,95.0,64.9,37,30.01,10.0,WSW,10.4,-,N/A,,Partly Cloudy,250,2013-07-17 19:53:00
4:53 PM,93.9,66.9,41,29.99,10.0,SW,8.1,-,N/A,,Clear,230,2013-07-17 20:53:00
5:53 PM,91.9,68.0,45,29.96,10.0,SSW,9.2,-,N/A,,Clear,210,2013-07-17 21:53:00
6:53 PM,90.0,69.1,50,29.98,10.0,WSW,8.1,-,N/A,,Partly Cloudy,240,2013-07-17 22:53:00
7:53 PM,84.0,73.0,69,29.96,10.0,South,9.2,-,N/A,,Clear,180,2013-07-17 23:53:00
8:53 PM,84.9,70.0,61,29.96,10.0,SSW,9.2,-,N/A,,Scattered Clouds,200,2013-07-18 00:53:00
9:29 PM,84.2,71.6,66,30.00,10.0,South,8.1,-,N/A,Thunderstorm,Thunderstorm,180,2013-07-18 01:29:00
9:44 PM,82.4,71.6,70,30.01,10.0,South,3.5,-,N/A,,Clear,190,2013-07-18 01:44:00
9:53 PM,82.9,71.1,67,29.97,10.0,South,3.5,-,N/A,,Clear,180,2013-07-18 01:53:00
10:53 PM,80.1,72.0,76,29.96,10.0,North,8.1,-,N/A,,Clear,360,2013-07-18 02:53:00
11:53 PM,78.1,71.1,79,29.98,10.0,NNW,3.5,-,N/A,,Scattered Clouds,340,2013-07-18 03:53:00